Maysville, GA

5:32 PM EST on February 21, 2017 (GMT -0500)
Jefferson

Weather History for K19A - March, 2013

Change the Weather History Date:

Sunday, March 17, 2013

  Actual Average (KWDR) Record (KWDR)
Temperature  
Mean Temperature 61 °F -  
Max Temperature 69 °F 64 °F 84 °F (1963)
Min Temperature 53 °F 38 °F 26 °F (1962)
Degree Days  
Heating Degree Days 4    
Growing Degree Days 11 (Base 50)    
Moisture  
Dew Point 35 °F    
Average Humidity 37    
Maximum Humidity 54    
Minimum Humidity 22    
Precipitation  
Precipitation 0.00 in - - ()
Sea Level Pressure  
Sea Level Pressure 29.96 in    
Wind  
Wind Speed 6 mph (WSW)    
Max Wind Speed 16 mph    
Max Gust Speed 20 mph    
Visibility 10 miles    
Events      
Averages and records for this station are not official NWS values.
T = Trace of Precipitation, MM = Missing Value Source: NWS Daily Summary

Daily Weather History Graph

Daily Weather History Graph

Search for Another Location

Airport or City:

Trip Planner

Search our weather history database for the weather conditions in past years. The results will help you decide how hot, cold, wet, or windy it might be!

Date:

Astronomy

Mar. 17, 2013 Rise Set
Actual Time 7:41 AM EDT 7:43 PM EDT
Civil Twilight 7:16 AM EDT 8:08 PM EDT
Nautical Twilight 6:47 AM EDT 8:37 PM EDT
Astronomical Twilight 6:18 AM EDT 9:07 PM EDT
Moon 11:08 AM EDT (3/17) 12:36 AM EDT (3/17)
Length of Visible Light 12h 52m
Length of Day
12h 02m
Waxing Crescent, 31% of the Moon is Illuminated
Mar 17
Waxing Crescent
Mar 19
First Quarter
Mar 27
Full
Apr 3
Last Quarter
Apr 10
New

Hourly Weather History & Observations

Time (EDT) Temp. Dew Point Humidity Pressure Visibility Wind Dir Wind Speed Gust Speed Precip Events Conditions
12:15 AM 62.6 °F 23.0 °F 22% 29.96 in 10.0 mi West 3.5 mph - N/A   Clear
12:35 AM 60.8 °F 24.8 °F 25% 29.96 in 10.0 mi West 4.6 mph - N/A   Clear
12:55 AM 60.8 °F 26.6 °F 27% 29.96 in 10.0 mi West 4.6 mph - N/A   Clear
1:15 AM 60.8 °F 26.6 °F 27% 29.96 in 10.0 mi West 3.5 mph - N/A   Clear
1:35 AM 60.8 °F 26.6 °F 27% 29.96 in 10.0 mi WSW 3.5 mph - N/A   Clear
1:55 AM 59.0 °F 28.4 °F 31% 29.96 in 10.0 mi Calm Calm - N/A   Clear
2:15 AM 59.0 °F 28.4 °F 31% 29.96 in 10.0 mi Calm Calm - N/A   Unknown
2:35 AM 59.0 °F 28.4 °F 31% 29.96 in 10.0 mi Calm Calm - N/A   Clear
2:55 AM 59.0 °F 30.2 °F 34% 29.96 in 10.0 mi WSW 5.8 mph - N/A   Clear
3:15 AM 57.2 °F 30.2 °F 36% 29.96 in 10.0 mi WSW 5.8 mph - N/A   Clear
3:35 AM 57.2 °F 30.2 °F 36% 29.96 in 10.0 mi SW 4.6 mph - N/A   Clear
3:55 AM 55.4 °F 32.0 °F 41% 29.96 in 10.0 mi WSW 4.6 mph - N/A   Clear
4:15 AM 55.4 °F 32.0 °F 41% 29.95 in 10.0 mi WSW 4.6 mph - N/A   Clear
4:35 AM 55.4 °F 32.0 °F 41% 29.95 in 10.0 mi WSW 5.8 mph - N/A   Clear
4:55 AM 55.4 °F 32.0 °F 41% 29.95 in 10.0 mi WSW 4.6 mph - N/A   Clear
5:15 AM 55.4 °F 32.0 °F 41% 29.95 in 10.0 mi WSW 4.6 mph - N/A   Clear
5:35 AM 53.6 °F 33.8 °F 47% 29.95 in 10.0 mi WSW 4.6 mph - N/A   Clear
5:55 AM 53.6 °F 33.8 °F 47% 29.96 in 10.0 mi WSW 5.8 mph - N/A   Clear
6:15 AM 53.6 °F 35.6 °F 51% 29.97 in 10.0 mi WSW 4.6 mph - N/A   Clear
6:35 AM 53.6 °F 35.6 °F 51% 29.97 in 10.0 mi West 4.6 mph - N/A   Clear
6:55 AM 53.6 °F 35.6 °F 51% 29.98 in 10.0 mi West 3.5 mph - N/A   Clear
7:15 AM 53.6 °F 37.4 °F 54% 29.98 in 10.0 mi West 4.6 mph - N/A   Clear
7:35 AM 53.6 °F 37.4 °F 54% 29.98 in 10.0 mi West 4.6 mph - N/A   Clear
7:55 AM 53.6 °F 37.4 °F 54% 29.98 in 10.0 mi WSW 5.8 mph - N/A   Clear
8:15 AM 53.6 °F 37.4 °F 54% 30.00 in 10.0 mi West 6.9 mph - N/A   Clear
8:35 AM 55.4 °F 37.4 °F 51% 30.00 in 10.0 mi WSW 6.9 mph - N/A   Clear
8:55 AM 55.4 °F 37.4 °F 51% 30.01 in 10.0 mi West 8.1 mph - N/A   Clear
9:15 AM 57.2 °F 39.2 °F 51% 30.01 in 10.0 mi West 11.5 mph - N/A   Clear
9:35 AM 59.0 °F 39.2 °F 48% 30.01 in 10.0 mi WSW 11.5 mph 17.3 mph N/A   Clear
9:55 AM 59.0 °F 41.0 °F 51% 30.01 in 10.0 mi West 12.7 mph 18.4 mph N/A   Clear
10:15 AM 60.8 °F 41.0 °F 48% 30.01 in 10.0 mi West 16.1 mph 19.6 mph N/A   Clear
10:35 AM 62.6 °F 41.0 °F 45% 30.01 in 10.0 mi West 11.5 mph 19.6 mph N/A   Clear
10:55 AM 62.6 °F 41.0 °F 45% 30.01 in 10.0 mi West 10.4 mph 17.3 mph N/A   Clear
11:15 AM 64.4 °F 41.0 °F 42% 30.01 in 10.0 mi WNW 10.4 mph - N/A   Clear
11:35 AM 64.4 °F 41.0 °F 42% 30.00 in 10.0 mi WNW 12.7 mph 16.1 mph N/A   Clear
11:55 AM 66.2 °F 41.0 °F 40% 30.00 in 10.0 mi WNW 9.2 mph - N/A   Clear
12:15 PM 68.0 °F 41.0 °F 37% 29.99 in 10.0 mi WNW 11.5 mph 16.1 mph N/A   Clear
12:35 PM 66.2 °F 39.2 °F 37% 29.99 in 10.0 mi West 9.2 mph 17.3 mph N/A   Clear
12:55 PM 68.0 °F 39.2 °F 35% 29.98 in 10.0 mi West 8.1 mph - N/A   Clear
1:15 PM 68.0 °F 39.2 °F 35% 29.97 in 10.0 mi West 8.1 mph - N/A   Clear
1:35 PM 69.8 °F 37.4 °F 31% 29.97 in 10.0 mi West 9.2 mph - N/A   Clear
1:55 PM 69.8 °F 35.6 °F 28% 29.96 in 10.0 mi WSW 4.6 mph - N/A   Clear
2:15 PM 69.8 °F 35.6 °F 28% 29.96 in 10.0 mi WSW 12.7 mph 17.3 mph N/A   Scattered Clouds
2:35 PM 69.8 °F 33.8 °F 27% 29.94 in 10.0 mi SW 5.8 mph - N/A   Scattered Clouds
2:55 PM 69.8 °F 35.6 °F 28% 29.94 in 10.0 mi West 10.4 mph - N/A   Scattered Clouds
3:15 PM 69.8 °F 33.8 °F 27% 29.93 in 10.0 mi WSW 11.5 mph 17.3 mph N/A   Scattered Clouds
3:35 PM 69.8 °F 32.0 °F 25% 29.93 in 10.0 mi WSW 11.5 mph - N/A   Scattered Clouds
3:55 PM 69.8 °F 32.0 °F 25% 29.93 in 10.0 mi WSW 12.7 mph 18.4 mph N/A   Clear
4:15 PM 69.8 °F 32.0 °F 25% 29.92 in 10.0 mi SSW 8.1 mph - N/A   Scattered Clouds
4:35 PM 69.8 °F 32.0 °F 25% 29.91 in 10.0 mi WSW 12.7 mph 16.1 mph N/A   Scattered Clouds
4:55 PM 69.8 °F 32.0 °F 25% 29.91 in 10.0 mi SW 9.2 mph - N/A   Scattered Clouds
5:15 PM 69.8 °F 30.2 °F 23% 29.91 in 10.0 mi SW 11.5 mph - N/A   Mostly Cloudy
5:35 PM 69.8 °F 32.0 °F 25% 29.91 in 10.0 mi SW 9.2 mph 17.3 mph N/A   Scattered Clouds
5:55 PM 69.8 °F 33.8 °F 27% 29.91 in 10.0 mi SW 11.5 mph - N/A   Clear
6:15 PM 69.8 °F 32.0 °F 25% 29.92 in 10.0 mi SW 12.7 mph 17.3 mph N/A   Clear
6:35 PM 68.0 °F 32.0 °F 26% 29.92 in 10.0 mi SW 9.2 mph 17.3 mph N/A   Clear
6:55 PM 68.0 °F 33.8 °F 28% 29.93 in 10.0 mi SSW 10.4 mph 17.3 mph N/A   Clear
7:15 PM 66.2 °F 33.8 °F 30% 29.93 in 10.0 mi SSW 8.1 mph - N/A   Clear
7:35 PM 66.2 °F 33.8 °F 30% 29.93 in 10.0 mi SSW 8.1 mph - N/A   Clear
7:55 PM 64.4 °F 33.8 °F 32% 29.94 in 10.0 mi SSW 6.9 mph - N/A   Clear
8:15 PM 64.4 °F 33.8 °F 32% 29.95 in 10.0 mi SSW 6.9 mph - N/A   Clear
8:35 PM 62.6 °F 35.6 °F 37% 29.95 in 10.0 mi SSW 5.8 mph - N/A   Clear
8:55 PM 62.6 °F 35.6 °F 37% 29.96 in 10.0 mi SSW 4.6 mph - N/A   Clear
9:15 PM 62.6 °F 35.6 °F 37% 29.96 in 10.0 mi South 3.5 mph - N/A   Clear
9:35 PM 62.6 °F 35.6 °F 37% 29.96 in 10.0 mi South 3.5 mph - N/A   Clear
10:15 PM 62.6 °F 35.6 °F 37% 29.97 in 10.0 mi South 4.6 mph - N/A   Clear
10:35 PM 60.8 °F 37.4 °F 42% 29.97 in 10.0 mi South 3.5 mph - N/A   Clear
10:55 PM 60.8 °F 37.4 °F 42% 29.98 in 10.0 mi Calm Calm - N/A   Scattered Clouds
11:15 PM 60.8 °F 37.4 °F 42% 29.98 in 10.0 mi Calm Calm - N/A   Scattered Clouds
11:35 PM 60.8 °F 37.4 °F 42% 29.98 in 10.0 mi Calm Calm - N/A   Clear
11:55 PM 60.8 °F 39.2 °F 45% 29.98 in 10.0 mi Calm Calm - N/A   Scattered Clouds